Johnstown, PA

8:53 PM EDT on May 26, 2017 (GMT -0400)
Johnstown-Cambria County

Weather History for KJST - August, 2014

Change the Weather History Date:

Wednesday, August 27, 2014

  Actual Average Record
Temperature  
Mean Temperature 71 °F 66 °F  
Max Temperature 82 °F 74 °F 101 °F (1948)
Min Temperature 60 °F 58 °F 41 °F (1944)
Degree Days  
Heating Degree Days 0 1  
Month to date heating degree days 27 23  
Since 1 June heating degree days 116 110  
Since 1 July heating degree days 76 36  
Cooling Degree Days 6 3  
Month to date cooling degree days 67 108  
Year to date cooling degree days 285 351  
Since 1 June cooling degree days 259 333  
Growing Degree Days 21 (Base 50)    
Moisture  
Dew Point 64 °F    
Average Humidity 74    
Maximum Humidity 90    
Minimum Humidity 58    
Precipitation  
Precipitation 0.80 in 0.11 in 1.60 in (1899)
Month to date precipitation 3.40 3.36  
Year to date precipitation 25.29 23.85  
Sea Level Pressure  
Sea Level Pressure 30.06 in    
Wind  
Wind Speed 8 mph (West)    
Max Wind Speed 20 mph    
Max Gust Speed 25 mph    
Visibility 7 miles    
Events Rain , Thunderstorm    
T = Trace of Precipitation, MM = Missing Value Source: NWS Daily Summary

Daily Weather History Graph

Daily Weather History Graph

Search for Another Location

Airport or City:

Trip Planner

Search our weather history database for the weather conditions in past years. The results will help you decide how hot, cold, wet, or windy it might be!

Date:

Astronomy

Aug. 27, 2014 Rise Set
Actual Time 6:37 AM EDT 7:54 PM EDT
Civil Twilight 6:09 AM EDT 8:23 PM EDT
Nautical Twilight 5:35 AM EDT 8:56 PM EDT
Astronomical Twilight 5:00 AM EDT 9:32 PM EDT
Moon 8:32 AM EDT 8:45 PM EDT
Length of Visible Light 14h 13m
Length of Day
13h 17m
Waxing Crescent, 4% of the Moon is Illuminated
Aug 27
Waxing Crescent
Sep 2
First Quarter
Sep 8
Full
Sep 15
Last Quarter
Sep 24
New

Hourly Weather History & Observations

Time (EDT) Temp. Heat Index Dew Point Humidity Pressure Visibility Wind Dir Wind Speed Gust Speed Precip Events Conditions
1:54 AM 62.1 °F - 52.0 °F 70% 30.09 in 10.0 mi SW 4.6 mph - N/A   Clear
2:54 AM 62.1 °F - 52.0 °F 70% 30.11 in 10.0 mi SW 6.9 mph - N/A   Clear
3:54 AM 62.1 °F - 54.0 °F 75% 30.11 in 10.0 mi SW 5.8 mph - N/A   Clear
4:54 AM 62.1 °F - 54.0 °F 75% 30.10 in 10.0 mi SW 5.8 mph - N/A   Clear
5:54 AM 61.0 °F - 54.0 °F 78% 30.10 in 10.0 mi WSW 6.9 mph - N/A   Clear
6:54 AM 63.0 °F - 55.9 °F 78% 30.11 in 10.0 mi WSW 6.9 mph - N/A   Clear
7:54 AM 64.9 °F - 57.0 °F 75% 30.12 in 10.0 mi SW 6.9 mph - N/A   Clear
8:54 AM 69.1 °F - 60.1 °F 73% 30.11 in 10.0 mi WSW 6.9 mph - N/A   Clear
9:54 AM 71.1 °F - 62.1 °F 73% 30.11 in 10.0 mi WSW 6.9 mph - N/A   Clear
11:54 AM 77.0 °F - 66.0 °F 69% 30.10 in 10.0 mi WNW 8.1 mph - N/A   Clear
12:51 PM 78.8 °F - 66.2 °F 65% 30.12 in 10.0 mi Variable 4.6 mph - N/A   Mostly Cloudy
12:54 PM 78.1 °F - 66.0 °F 66% 30.08 in 10.0 mi WSW 9.2 mph - N/A   Mostly Cloudy
1:40 PM 80.1 °F 82.1 °F 66.0 °F 62% 30.10 in 10.0 mi WNW 10.4 mph - N/A   Scattered Clouds
1:54 PM 81.0 °F 83.3 °F 66.9 °F 62% 30.05 in 10.0 mi West 9.2 mph - N/A   Mostly Cloudy
2:54 PM 81.0 °F 83.3 °F 66.9 °F 62% 30.04 in 10.0 mi West 11.5 mph - N/A   Scattered Clouds
3:54 PM 80.1 °F 81.9 °F 64.9 °F 60% 30.02 in 10.0 mi West 11.5 mph - N/A   Partly Cloudy
4:54 PM 81.0 °F 83.0 °F 66.0 °F 60% 30.01 in 10.0 mi West 9.2 mph - N/A   Partly Cloudy
5:54 PM 77.0 °F - 66.0 °F 69% 30.01 in 10.0 mi West 8.1 mph - N/A   Clear
6:19 PM 75.0 °F - 66.9 °F 76% 30.05 in 1.5 mi WSW 11.5 mph - 0.11 in Rain Heavy Rain
6:23 PM 73.0 °F - 68.0 °F 84% 30.05 in 0.8 mi West 9.2 mph - 0.17 in Rain , Thunderstorm Heavy Rain
6:31 PM 72.0 °F - 66.9 °F 84% 30.06 in 0.5 mi West 13.8 mph 18.4 mph 0.37 in Rain , Thunderstorm Heavy Thunderstorms and Rain
6:41 PM 68.0 °F - 62.1 °F 81% 30.05 in 0.2 mi East 6.9 mph 25.3 mph 0.72 in Rain , Thunderstorm Thunderstorms and Rain
6:46 PM 69.1 °F - 62.1 °F 78% 30.06 in 1.2 mi SE 3.5 mph - 0.73 in Rain , Thunderstorm Thunderstorms and Rain
6:48 PM 69.8 °F - 62.6 °F 78% 30.06 in 3.0 mi Calm Calm - 0.73 in Rain , Thunderstorm Thunderstorms and Rain
6:54 PM 70.0 °F - 64.0 °F 81% 30.02 in 3.0 mi WNW 5.8 mph - 0.74 in Rain , Thunderstorm Rain
7:10 PM 71.1 °F - 69.1 °F 93% 30.04 in 3.0 mi West 8.1 mph - 0.01 in Rain , Thunderstorm Light Rain
7:17 PM 71.1 °F - 69.1 °F 93% 30.05 in 2.5 mi WNW 10.4 mph - 0.01 in Thunderstorm Mostly Cloudy
7:29 PM 71.1 °F - 68.0 °F 90% 30.05 in 4.0 mi WNW 10.4 mph - 0.01 in Thunderstorm Partly Cloudy
7:37 PM 71.1 °F - 68.0 °F 90% 30.05 in 5.0 mi West 6.9 mph - 0.01 in Thunderstorm Scattered Clouds
7:54 PM 70.0 °F - 68.0 °F 93% 30.01 in 4.0 mi West 8.1 mph - 0.01 in   Mostly Cloudy
8:38 PM 68.0 °F - 66.0 °F 93% 30.05 in 1.5 mi West 5.8 mph - 0.00 in   Mostly Cloudy
8:47 PM 69.1 °F - 64.9 °F 87% 30.05 in 3.0 mi West 9.2 mph - 0.00 in   Scattered Clouds
8:54 PM 69.1 °F - 64.9 °F 87% 30.02 in 10.0 mi WNW 9.2 mph - 0.00 in   Scattered Clouds
9:54 PM 69.1 °F - 66.0 °F 90% 30.03 in 9.0 mi WNW 9.2 mph - 0.05 in   Partly Cloudy
10:37 PM 69.1 °F - 66.0 °F 90% 30.08 in 7.0 mi NW 10.4 mph - N/A   Mostly Cloudy
10:54 PM 69.1 °F - 66.0 °F 90% 30.04 in 6.0 mi NW 9.2 mph - N/A   Overcast
10:58 PM 68.0 °F - 66.0 °F 93% 30.08 in 5.0 mi NW 10.4 mph - N/A   Overcast
11:19 PM 68.0 °F - 64.9 °F 90% 30.07 in 6.0 mi NW 10.4 mph - N/A   Mostly Cloudy
11:27 PM 66.9 °F - 64.9 °F 93% 30.07 in 7.0 mi NW 11.5 mph - N/A   Scattered Clouds
11:54 PM 66.0 °F - 63.0 °F 90% 30.04 in 9.0 mi NW 13.8 mph - N/A   Mostly Cloudy